{"data":{"norad_id":59334,"intl_designator":"2024-057Q","name":"STARLINK-31573","alt_names":[],"object_type":"PAYLOAD","status":"ACTIVE","operator":null,"country":"US","launch_date":"2024-03-25","launch_site_code":"AFETR","launch_vehicle":null,"mission":null,"orbit_class":"UNKNOWN","rcs_meters":null,"size_class":null,"mass_kg":null,"dimensions":null,"purposes":["comms"],"wikipedia_slug":null,"has_3d_model":false,"image_url":null,"decayed_at":null,"tle_current":{"epoch":"2026-09-21T03:03:40.956768Z","epoch_age_seconds":108053,"freshness":"FRESH","line1":"1 59334U 24057Q   26264.12755737  .00000158  00000+0  15255-4 0  9994","line2":"2 59334  43.0007 162.9198 0001215 270.2658  89.8055 15.27578488139738","mean_motion":15.27578488,"eccentricity":0.0001215,"inclination_deg":43.0007,"raan_deg":162.9198,"arg_perigee_deg":270.2658,"mean_anomaly_deg":89.8055,"bstar":1.5255e-5,"rev_number":13973,"period_min":94.266842019053,"perigee_km":482.21998885457,"apogee_km":483.88725817608,"semimajor_km":6861.1906235153,"source":"CELESTRAK","updated_at":"2026-09-22T09:00:48.900762Z"}}}